Terminal Aerodrome Forecast
Issued by NWS

Current Version | Previous Version | Graphics & Text | Print | Product List | Glossary On
Versions: 1 2 3 4 5 6 7 8 9 10 11 12 13 14 15 16 17 18
000
FTUS41 KPBZ 251700
TAFHLG
TAF
KHLG 251739Z 2518/2618 16004KT P6SM SCT035 BKN250=

USA.gov is the U.S. government's official web portal to all federal, state and local government web resources and services.